Temp
79 79 79 78 78 78 78 78 78 78 78 78 78 79 79 78 76 77 76 74 80 80 79 79 79 79 79 79 79 79 79 79 80
79 79 78 78 78 78 77 78 78 78 78 78 78 78 78 75 78 73 73 75 80 80 79 79 79 79 79 79 79 79 79 79 79
78 78 77 77 77 76 77 77 77 77 77 77 78 78 77 75 73 72 72 78 80 80 79 79 78 78 78 78 79 79 78 79 79
76 76 76 76 77 77 78 78 78 78 78 77 78 78 77 70 71 76 72 78 79 79 79 78 78 78 78 78 79 79 78 79 79
76 76 77 77 78 79 79 79 79 79 79 78 78 77 76 72 71 71 72 78 79 78 78 78 78 78 78 78 78 78 78 79 78
68 76 78 79 79 79 79 78 78 77 75 76 76 75 69 70 71 69 76 78 79 78 77 77 77 78 79 78 78 78 77 77 78
69 72 75 76 76 77 76 76 75 70 64 64 69 65 66 67 68 69 76 77 78 77 76 76 77 77 79 78 78 78 77 77 77
61 60 60 60 68 62 64 62 62 62 62 62 62 64 63 62 64 70 75 76 78 78 77 76 76 77 77 78 78 78 78 77 77
59 58 58 58 58 59 58 58 60 61 62 60 61 61 61 62 62 64 73 75 76 78 78 77 76 76 76 77 77 78 78 78 78
58 57 57 57 58 57 57 57 58 59 60 61 61 60 60 61 62 59 71 74 76 77 77 77 77 76 76 76 77 77 77 77 77
57 57 57 56 57 57 57 57 57 57 58 60 60 60 59 60 61 61 59 71 74 76 77 77 76 76 76 76 76 76 76 76 76
57 56 56 55 57 57 57 57 57 56 58 55 57 58 58 59 59 60 60 61 69 72 75 75 76 76 76 75 75 75 76 76 76
57 56 56 56 57 55 55 54 54 53 53 51 53 53 55 57 57 58 59 59 61 65 70 75 75 75 74 75 74 75 75 75 76
57 57 56 57 55 54 54 53 51 51 51 54 54 53 53 53 61 55 58 58 59 59 66 72 72 73 73 75 74 75 74 74 74
58 57 56 56 54 53 53 51 52 50 50 57 56 50 53 52 51 52 58 57 58 58 60 58 61 71 74 74 75 74 75 74 74
58 56 56 55 54 53 52 50 49 49 48 46 47 48 51 49 50 51 52 55 56 56 56 56 56 58 68 71 73 75 75 74 73
59 56 55 54 52 52 51 49 47 46 47 45 42 41 45 47 55 58 53 57 53 55 57 55 56 55 55 59 68 69 72 74 74
59 57 55 54 51 50 49 48 47 44 45 46 45 39 37 45 48 48 51 49 50 51 52 54 56 56 54 58 59 65 69 71 72
59 57 55 53 51 50 49 53 48 44 43 43 50 44 42 39 40 44 46 49 51 49 49 51 53 53 53 59 62 65 67 68 69
57 56 54 52 50 49 48 48 46 45 43 42 42 41 41 41 39 41 45 44 47 48 49 48 48 51 52 51 56 65 66 66 67
MSLP
1017.70 1017.68 1017.68 1017.74 1017.72 1017.70 1017.66 1017.61 1017.54 1017.46 1017.35 1017.17 1016.92 1016.74 1016.57 1016.62 1016.49 1016.60 1016.57 1016.65 1016.72 1016.78 1016.79 1016.68 1016.61 1016.46 1016.38 1016.28 1016.12 1016.04 1016.05 1015.96 1015.86
1017.78 1017.73 1017.79 1017.82 1017.90 1017.91 1017.88 1017.80 1017.71 1017.66 1017.53 1017.36 1017.17 1016.93 1016.91 1016.88 1016.66 1016.92 1016.83 1016.82 1016.84 1016.95 1016.99 1016.94 1016.84 1016.77 1016.64 1016.54 1016.48 1016.48 1016.43 1016.33 1016.27
1018.03 1018.03 1018.14 1018.15 1018.17 1018.18 1018.10 1018.01 1017.90 1017.81 1017.68 1017.50 1017.36 1017.23 1017.10 1017.08 1017.30 1017.18 1017.10 1016.92 1016.97 1017.07 1017.11 1017.11 1017.08 1016.99 1016.92 1016.80 1016.72 1016.68 1016.70 1016.66 1016.70
1018.49 1018.51 1018.55 1018.51 1018.40 1018.28 1018.17 1018.13 1018.07 1017.92 1017.80 1017.60 1017.55 1017.43 1017.18 1017.15 1017.35 1017.28 1017.32 1017.19 1017.18 1017.24 1017.22 1017.16 1017.18 1017.17 1017.11 1017.04 1016.93 1016.87 1016.87 1016.83 1016.92
1018.76 1018.79 1018.73 1018.66 1018.55 1018.40 1018.31 1018.21 1018.11 1018.02 1017.82 1017.76 1017.65 1017.56 1017.39 1017.28 1017.40 1017.38 1017.47 1017.32 1017.24 1017.37 1017.44 1017.30 1017.18 1017.17 1017.18 1017.15 1017.13 1017.09 1017.02 1016.97 1017.08
1019.06 1018.97 1018.84 1018.68 1018.64 1018.58 1018.50 1018.42 1018.34 1018.28 1018.21 1018.05 1017.84 1017.72 1017.72 1017.63 1017.69 1017.83 1017.61 1017.45 1017.39 1017.42 1017.52 1017.54 1017.38 1017.20 1017.15 1017.17 1017.16 1017.19 1017.19 1017.18 1017.22
1019.33 1019.26 1019.14 1019.03 1019.04 1018.95 1018.87 1018.84 1018.77 1018.77 1018.73 1018.54 1018.26 1018.21 1018.05 1018.07 1018.02 1017.86 1017.70 1017.66 1017.59 1017.61 1017.63 1017.58 1017.50 1017.33 1017.12 1017.12 1017.18 1017.22 1017.25 1017.27 1017.34
1019.76 1019.73 1019.73 1019.68 1019.59 1019.65 1019.52 1019.43 1019.39 1019.26 1019.20 1019.03 1018.79 1018.57 1018.39 1018.37 1018.32 1018.02 1017.76 1017.65 1017.57 1017.58 1017.65 1017.62 1017.50 1017.38 1017.28 1017.09 1017.02 1017.13 1017.21 1017.26 1017.32
1020.09 1020.16 1020.18 1020.16 1020.15 1020.10 1020.08 1020.06 1019.82 1019.68 1019.52 1019.43 1019.27 1019.08 1018.85 1018.62 1018.44 1018.33 1017.98 1017.70 1017.53 1017.46 1017.49 1017.52 1017.52 1017.39 1017.25 1017.15 1017.06 1016.96 1017.04 1017.14 1017.19
1020.26 1020.47 1020.52 1020.53 1020.36 1020.42 1020.46 1020.42 1020.34 1020.18 1019.96 1019.71 1019.53 1019.35 1019.14 1018.86 1018.58 1018.37 1018.00 1017.70 1017.50 1017.48 1017.43 1017.41 1017.41 1017.41 1017.30 1017.13 1017.03 1016.94 1016.90 1016.94 1017.02
1020.55 1020.70 1020.79 1020.73 1020.64 1020.64 1020.60 1020.66 1020.64 1020.60 1020.41 1020.13 1019.80 1019.52 1019.20 1018.91 1018.68 1018.40 1018.17 1017.77 1017.48 1017.34 1017.28 1017.26 1017.38 1017.32 1017.24 1017.14 1017.04 1016.90 1016.81 1016.72 1016.86
1020.69 1020.84 1020.96 1020.95 1020.77 1020.76 1020.74 1020.75 1020.72 1020.80 1020.60 1020.63 1020.10 1019.71 1019.40 1019.03 1018.71 1018.38 1018.14 1017.90 1017.57 1017.32 1017.18 1017.19 1017.16 1017.13 1017.09 1017.11 1017.01 1016.88 1016.74 1016.64 1016.58
1020.74 1020.93 1021.04 1020.96 1020.93 1021.02 1021.01 1021.05 1021.10 1021.11 1021.07 1020.86 1020.48 1020.14 1019.58 1019.05 1018.75 1018.39 1018.14 1017.85 1017.57 1017.36 1017.14 1017.01 1017.06 1017.08 1017.04 1016.92 1016.81 1016.69 1016.60 1016.51 1016.44
1020.73 1020.91 1020.97 1020.87 1021.00 1021.15 1021.26 1021.32 1021.37 1021.31 1021.17 1020.89 1020.47 1020.21 1019.73 1019.17 1018.69 1018.57 1018.13 1017.69 1017.51 1017.35 1017.02 1016.82 1016.88 1016.93 1016.92 1016.77 1016.67 1016.58 1016.52 1016.44 1016.34
1020.63 1020.81 1020.87 1020.93 1021.13 1021.37 1021.39 1021.50 1021.41 1021.42 1021.32 1021.08 1020.70 1020.16 1019.41 1018.88 1018.96 1018.67 1018.18 1017.91 1017.75 1017.54 1017.36 1017.25 1017.06 1016.76 1016.65 1016.58 1016.46 1016.44 1016.37 1016.29 1016.23
1020.52 1020.82 1020.88 1020.93 1021.16 1021.36 1021.44 1021.51 1021.59 1021.51 1021.24 1021.37 1020.99 1020.23 1019.33 1018.88 1018.91 1018.68 1018.50 1018.10 1017.77 1017.51 1017.39 1017.52 1017.42 1017.18 1016.84 1016.60 1016.36 1016.17 1016.12 1016.19 1016.20
1020.25 1020.46 1020.72 1020.81 1021.12 1021.23 1021.33 1021.44 1021.75 1021.71 1021.34 1021.69 1021.68 1021.10 1019.97 1019.16 1018.65 1018.44 1018.40 1018.06 1017.94 1017.64 1017.49 1017.48 1017.39 1017.31 1017.20 1016.94 1016.57 1016.36 1016.14 1015.97 1015.95
1019.76 1019.99 1020.33 1020.52 1020.80 1021.01 1021.05 1021.14 1021.43 1021.72 1021.49 1021.45 1021.83 1021.70 1021.29 1020.18 1019.03 1018.93 1018.68 1018.49 1018.25 1017.92 1017.62 1017.33 1017.10 1016.93 1016.86 1016.72 1016.55 1016.26 1016.03 1015.88 1015.72
1019.42 1019.56 1019.85 1020.16 1020.47 1020.69 1020.65 1020.63 1020.96 1021.31 1021.55 1021.36 1021.17 1021.32 1021.33 1021.18 1019.59 1018.87 1018.75 1018.60 1018.35 1018.13 1017.86 1017.51 1017.17 1016.94 1016.76 1016.54 1016.28 1016.11 1015.94 1015.81 1015.70
1019.23 1019.41 1019.62 1019.93 1020.16 1020.28 1020.43 1020.45 1020.60 1020.79 1021.11 1021.21 1021.17 1021.01 1020.87 1020.73 1020.76 1019.51 1018.53 1018.54 1018.23 1017.96 1017.79 1017.49 1017.26 1016.88 1016.67 1016.53 1016.27 1015.81 1015.60 1015.57 1015.58
Wind_Speed
13 13 13 14 14 13 13 12 11 10 10 10 12 13 16 12 6 5 9 6 13 12 11 11 11 12 13 12 13 11 11 12 11
11 12 12 14 14 14 13 12 11 10 9 9 10 12 14 9 6 5 5 6 12 10 10 9 10 10 11 11 10 12 10 11 12
14 14 14 13 13 12 12 11 11 9 9 9 9 10 11 6 6 4 3 10 11 10 7 7 7 7 8 9 9 9 9 10 10
13 14 13 12 12 12 12 12 12 10 8 9 11 11 10 5 2 5 4 9 10 9 8 4 5 5 5 6 7 7 6 8 9
12 11 12 10 11 12 13 13 14 16 11 10 12 12 9 6 2 4 3 9 10 10 9 8 2 3 3 3 4 5 5 9 9
7 7 10 15 12 15 15 15 16 15 14 14 14 11 4 5 3 2 6 9 10 10 9 9 8 1 3 2 2 3 4 6 9
4 8 13 14 15 15 15 16 16 12 5 5 10 4 6 5 2 2 8 9 10 9 9 8 8 7 3 4 3 2 3 3 6
3 4 4 5 10 5 7 7 5 8 6 6 5 6 6 4 3 1 4 4 6 7 7 7 8 7 7 6 5 5 5 6 6
4 4 4 5 4 6 6 4 6 7 7 7 7 7 6 4 3 3 6 2 3 5 7 6 7 8 8 8 7 7 8 7 9
4 4 4 4 4 4 5 5 5 6 7 7 7 7 7 7 4 3 11 8 6 6 5 7 7 7 9 9 9 9 8 9 9
5 4 4 4 4 4 4 4 5 5 5 6 7 7 6 6 6 4 5 11 9 7 7 7 6 9 9 9 10 9 9 9 10
5 4 4 3 3 5 5 5 5 5 5 6 6 6 7 6 7 6 5 6 9 8 7 5 7 10 8 10 12 11 10 10 11
5 4 3 2 3 3 3 3 4 4 5 4 5 5 6 7 7 6 5 5 4 7 9 6 5 9 7 10 10 10 10 10 11
4 3 1 3 3 3 3 3 2 3 5 6 5 5 6 6 6 7 8 7 6 4 6 5 3 4 7 11 9 8 9 10 12
4 2 2 3 3 2 2 2 2 1 3 5 7 6 7 5 4 5 5 6 6 5 5 4 4 7 9 9 9 9 8 9 10
4 2 1 1 1 1 1 1 2 3 2 3 4 5 6 5 3 4 4 6 6 6 5 4 3 4 11 12 12 10 10 10 10
5 4 3 1 0 2 2 1 2 2 1 1 1 5 6 3 8 10 5 9 5 6 6 6 5 3 3 6 10 9 11 13 13
6 5 4 3 3 2 2 2 2 2 2 1 2 3 4 7 3 4 5 6 6 6 6 6 6 5 4 6 8 10 6 10 13
6 6 6 4 3 3 3 2 2 3 3 2 2 3 3 3 7 1 3 5 6 6 5 6 6 7 4 8 7 8 6 6 9
5 4 3 3 2 2 3 3 3 2 3 4 3 2 3 5 5 11 9 3 4 5 5 5 5 5 5 5 7 12 8 7 8
Wind_Direction
74 73 74 71 68 63 60 55 49 44 34 21 6 3 1 22 48 83 94 89 79 71 65 62 59 57 57 57 58 59 75 83 91
76 70 77 73 62 57 52 48 47 42 32 19 4 354 7 10 42 79 84 88 82 76 72 65 63 62 59 62 62 58 74 80 87
70 65 59 59 58 53 47 41 38 30 19 4 4 358 1 5 47 65 66 89 78 65 78 76 70 65 64 64 65 67 69 82 88
67 66 63 59 53 50 44 40 31 15 360 350 1 354 340 345 48 94 60 69 74 60 39 80 93 83 71 67 66 69 74 109 104
77 66 61 53 48 42 31 26 34 29 25 353 345 344 341 341 108 101 84 74 65 52 33 13 77 121 108 76 68 63 61 142 122
82 71 43 50 51 43 40 34 27 21 16 11 6 14 1 24 85 60 74 61 58 48 32 12 359 261 146 138 120 86 68 149 139
86 46 53 43 41 38 32 30 27 20 9 6 15 12 6 35 67 81 65 54 48 40 26 12 358 347 262 192 182 169 166 150 168
70 57 35 32 36 27 30 23 20 18 16 7 3 5 4 10 26 65 105 68 37 27 10 357 353 344 327 282 212 210 210 202 198
69 63 47 45 28 33 32 24 15 15 9 13 3 360 356 352 0 321 308 1 23 2 351 341 332 334 331 318 307 247 218 215 216
75 62 54 44 39 39 29 25 17 11 1 358 2 350 346 345 342 335 332 307 297 319 325 330 332 324 319 317 311 301 275 222 219
84 68 55 44 42 29 36 25 19 2 1 350 343 332 333 334 336 327 327 325 318 298 303 323 326 325 320 309 307 303 290 274 238
99 85 62 44 36 32 29 16 16 6 353 344 331 330 331 325 322 314 312 316 322 315 286 276 300 315 308 314 307 295 291 281 272
92 88 70 54 45 49 32 21 358 358 351 330 316 323 318 315 317 321 316 300 296 303 301 275 310 320 312 313 316 295 288 287 281
106 103 110 74 54 41 18 357 23 347 337 322 320 313 305 300 319 312 309 307 311 300 288 220 243 264 289 307 303 308 304 296 289
121 100 75 67 55 11 2 351 329 291 308 321 316 304 293 293 319 324 350 352 360 356 338 324 306 253 279 304 294 294 310 309 289
142 146 114 96 82 261 308 310 325 314 315 347 316 295 298 316 318 324 326 331 346 346 354 358 338 309 311 307 309 285 287 301 293
172 160 188 160 113 339 326 310 304 280 325 290 296 335 321 336 338 322 322 337 337 344 338 336 332 333 315 312 324 325 314 297 286
184 187 187 198 171 227 248 260 224 253 300 210 186 329 265 317 312 326 300 322 332 309 307 305 307 301 311 322 311 296 304 304 296
207 200 194 199 196 222 240 219 218 162 273 326 228 224 202 268 312 280 311 291 292 309 313 318 321 325 323 311 302 307 309 307 306
222 214 202 215 204 228 236 278 275 211 198 205 258 253 257 232 239 288 299 276 266 274 282 296 301 305 313 309 296 292 280 292 282